Zurück zum Katalog

STARLINK-36597

AktivKommunikationSSO
NORAD 67613·PAYLOAD·🇺🇸 United States

Gestartet Jan 29, 2026 von Vandenberg Space Force Base

Loading…

Nächste Überflüge (nächste 24 Stunden)

TLE

AktuellSource: CelesTrak SupGP

Epoche: Sep 14, 2026, 22:54 UTC

1 67613C 26018AA  26257.95465278  .00005162  00000+0  16025-3 0  2575
2 67613  97.2855 321.4409 0000736  94.1751  31.8356 15.33438400    15

Verfolge STARLINK-36597 in Echtzeit mit AllMySat

Download on the App Store